Content
SEND FEEDBACK

Daily
Averages
Monthly
Summary
United States of America

ANNETTE, ALASKA


Home > North America > United States > Alaska
Elevation: 108 feet     Latitude: 55 03N     Longitude: 131 34W

WEATHER
 
SELECT A DAY
Number of Records: 232,719;   Date Range: 1/1/95 - 9/29/14
 
SHARE

PRINT THIS DATA

[ ← Previous Day ]
WEATHER ALMANAC - FEBRUARY 13, 2013
[ Next Day → ]
[ °C ]   °F
Weather ElementAverageHighLow
Temperature38.4 °F41 °F (11:53 am)32 °F (6:53 am)
Dewpoint33.8 °F37.4 °F (1:01 pm)30.9 °F (6:53 am)
Humidity83.5 %96 % (5:53 am)67 % (6:53 pm)
Barometer30.28 in30.33 in (10:53 am)30.23 in (9:43 pm)
Wind Speed7.2 mph17.3 mph (8:53 pm)
Wind Gust24.2 mph (8:53 pm)
Weather ElementAverage
Visibility9.9 mi
Wind DirectionENE (83.9 °)

Weather ElementTotal
Precipitation0.01 in
Heating Degree Days28.5 (Base 65)
Averaged from 28 records on February 13, 2013
WEATHER CONDITIONS BREAKOUT
WIND DIRECTION BREAKOUT
WEATHER BY HOUR - FEBRUARY 13, 2013
[ °C ]   °F
Local TimeTemperatureDewpointHumidityBarometerVisibilityWind DirectionWind SpeedGust SpeedPrecipitationEventsConditions
1:53 AM36.0 °F33.1 °F89 %30.25 in10.0 miCalmOvercast
3:53 AM36.0 °F33.1 °F89 %30.27 in10.0 miCalm0.00 inOvercast
4:53 AM36.0 °F33.1 °F89 %30.28 in10.0 miCalmOvercast
5:53 AM34.0 °F33.1 °F96 %30.27 in10.0 miCalmPartly Cloudy
6:53 AM32.0 °F30.9 °F96 %30.28 in10.0 miCalmScattered Clouds
7:53 AM33.1 °F32.0 °F96 %30.30 in10.0 miCalmMostly Cloudy
8:53 AM35.1 °F33.1 °F92 %30.31 in10.0 miCalmMostly Cloudy
9:53 AM37.9 °F35.1 °F89 %30.32 in10.0 miCalmOvercast
10:53 AM39.9 °F35.1 °F83 %30.33 in10.0 miESE (120°)6.9 mph0.00 inRainLight Rain
11:53 AM41.0 °F35.1 °F79 %30.32 in10.0 miSE (130°)9.2 mph0.00 inMostly Cloudy
12:53 PM39.0 °F36.0 °F89 %30.32 in6.0 miESE (120°)10.4 mph0.01 inRainLight Rain
1:01 PM39.2 °F37.4 °F93 %30.31 in10.0 miESE (120°)8.1 mph0.00 inRainLight Rain
1:53 PM39.9 °F37.0 °F89 %30.32 in10.0 miESE (110°)8.1 mph0.00 inRainLight Rain
2:53 PM39.9 °F36.0 °F86 %30.30 in10.0 miESE (110°)8.1 mph0.00 inMostly Cloudy
3:11 PM39.2 °F35.6 °F87 %30.29 in10.0 miESE (110°)10.4 mphMostly Cloudy
3:19 PM39.2 °F35.6 °F87 %30.28 in10.0 miESE (110°)10.4 mphMostly Cloudy
3:53 PM39.9 °F35.1 °F83 %30.29 in10.0 miESE (120°)6.9 mphMostly Cloudy
4:53 PM39.9 °F35.1 °F83 %30.28 in10.0 miESE (120°)10.4 mphOvercast
5:53 PM41.0 °F32.0 °F70 %30.28 in10.0 miESE (110°)8.1 mphOvercast
6:53 PM41.0 °F30.9 °F67 %30.27 in10.0 miESE (110°)9.2 mph16.1 mphOvercast
7:53 PM39.9 °F32.0 °F73 %30.26 in10.0 miESE (110°)8.1 mph19.6 mph0.00 inOvercast
8:24 PM39.2 °F33.8 °F81 %30.25 in10.0 miSE (130°)12.7 mph20.7 mphOvercast
8:53 PM39.9 °F32.0 °F73 %30.25 in10.0 miSE (130°)17.3 mph24.2 mphOvercast
9:43 PM39.2 °F32.0 °F75 %30.23 in10.0 miESE (120°)10.4 mph19.6 mphOvercast
9:50 PM39.2 °F32.0 °F75 %30.23 in10.0 miESE (110°)10.4 mph23.0 mphOvercast
9:53 PM39.9 °F32.0 °F73 %30.24 in10.0 miESE (110°)9.2 mph23.0 mphOvercast
10:53 PM39.9 °F33.1 °F77 %30.24 in10.0 miESE (120°)12.7 mph0.00 inOvercast
11:53 PM39.9 °F34.0 °F79 %30.23 in10.0 miSE (130°)13.8 mph23.0 mphOvercast
Hourly data recorded from PANT, located miles away from Annette, Alaska







STORIES FROM OUR PARTNERS